Location: B?jaj?g
(11.7167°N, 92.6667°E)
Time: 16:28:08
(UTC+00:00)

CZ-4 R/B - Pass Details

Date: 18 September 2020
Orbit: 530 x 600 km, 97.7° (Epoch: 30 October)

Event Time Altitude Azimuth Distance (km) Brightness Sun altitude
Rises 12:10:58 0° 149° (SSE) 2,814 4.6 -6.4°
Reaches altitude 10° 12:13:18 10° 139° (SE) 1,921 3.7 -7.0°
Maximum altitude 12:16:59 31° 77° (ENE) 1,064 2.3 -7.9°
Drops below altitude 10° 12:20:42 10° 15° (NNE) 1,934 4.0 -8.8°
Sets 12:23:03 0° 5° (N) 2,836 5.0 -9.4°
